| time (UTC) | temp C | wind direction | speed KPH | gust KPH | rain 1hr cm | rain 24hr cm | rain mn cm | humidity % | barometer mb |
| 20260507170035 | 33 | 177 | 9.7 | 20.9 | 0.00 | 0.00 | 0.00 | 100 | 1018.9 |
| 20260507165535 | 32 | 255 | 11.3 | 22.5 | 0.00 | 0.00 | 0.00 | 100 | 1018.9 |
| 20260507165145 | 33 | 277 | 3.2 | 19.3 | 0.00 | 0.00 | 0.00 | 100 | 1018.9 |
| 20260507165035 | 32 | 300 | 4.8 | 20.9 | 0.00 | 0.00 | 0.00 | 100 | 1018.9 |
| 20260507164535 | 33 | 277 | 3.2 | 19.3 | 0.00 | 0.00 | 0.00 | 100 | 1018.9 |
| 20260507164035 | 32 | 262 | 16.1 | 22.5 | 0.00 | 0.00 | 0.00 | 100 | 1019.1 |
| 20260507163535 | 31 | 244 | 6.4 | 19.3 | 0.00 | 0.00 | 0.00 | 100 | 1019.0 |
| 20260507163035 | 32 | 226 | 16.1 | 24.1 | 0.00 | 0.00 | 0.00 | 100 | 1019.0 |
| 20260507162535 | 32 | 260 | 11.3 | 20.9 | 0.00 | 0.00 | 0.00 | 100 | 1019.1 |
| 20260507162035 | 33 | 236 | 6.4 | 17.7 | 0.00 | 0.00 | 0.00 | 100 | 1019.1 |
| 20260507161535 | 32 | 257 | 14.5 | 22.5 | 0.00 | 0.00 | 0.00 | 100 | 1019.1 |
| 20260507161035 | 32 | 246 | 12.9 | 20.9 | 0.00 | 0.00 | 0.00 | 100 | 1019.1 |
| 20260507160535 | 32 | 230 | 3.2 | 17.7 | 0.00 | 0.00 | 0.00 | 100 | 1019.2 |
| 20260507160035 | 31 | 230 | 12.9 | 24.1 | 0.00 | 0.00 | 0.00 | 100 | 1019.3 |
| 20260507155727 | 32 | 247 | 11.3 | 24.1 | 0.00 | 0.00 | 0.00 | 100 | 1019.3 |
| 20260507155535 | 32 | 247 | 11.3 | 24.1 | 0.00 | 0.00 | 0.00 | 100 | 1019.3 |
| 20260507155035 | 32 | 239 | 20.9 | 25.7 | 0.00 | 0.00 | 0.00 | 100 | 1019.3 |
| 20260507154535 | 31 | 241 | 6.4 | 17.7 | 0.00 | 0.00 | 0.00 | 100 | 1019.3 |
| 20260507154035 | 32 | 250 | 17.7 | 20.9 | 0.00 | 0.00 | 0.00 | 100 | 1019.3 |
| 20260507153535 | 31 | 230 | 14.5 | 20.9 | 0.00 | 0.00 | 0.00 | 100 | 1019.4 |
| 20260507153035 | 31 | 265 | 16.1 | 19.3 | 0.00 | 0.00 | 0.00 | 100 | 1019.3 |
| 20260507152535 | 31 | 277 | 11.3 | 20.9 | 0.00 | 0.00 | 0.00 | 100 | 1019.2 |
| 20260507152035 | 31 | 217 | 14.5 | 17.7 | 0.00 | 0.00 | 0.00 | 100 | 1019.3 |
| 20260507151535 | 30 | 210 | 12.9 | 19.3 | 0.00 | 0.00 | 0.00 | 100 | 1019.3 |
| 20260507151501 | 30 | 281 | 4.8 | 17.7 | 0.00 | 0.00 | 0.00 | 100 | 1019.3 |
| 20260507151035 | 30 | 225 | 14.5 | 20.9 | 0.00 | 0.00 | 0.00 | 100 | 1019.3 |
| 20260507150535 | 30 | 230 | 14.5 | 19.3 | 0.00 | 0.00 | 0.00 | 100 | 1019.3 |
| 20260507150035 | 30 | 216 | 11.3 | 17.7 | 0.00 | 0.00 | 0.00 | 100 | 1019.3 |
| 20260507145535 | 30 | 220 | 16.1 | 24.1 | 0.00 | 0.00 | 0.00 | 100 | 1019.3 |
| 20260507145035 | 30 | 243 | 12.9 | 27.4 | 0.00 | 0.00 | 0.00 | 100 | 1019.2 |
| 20260507144535 | 30 | 281 | 4.8 | 17.7 | 0.00 | 0.00 | 0.00 | 100 | 1019.3 |
| 20260507144035 | 29 | 236 | 8.0 | 17.7 | 0.00 | 0.00 | 0.00 | 100 | 1019.3 |
| 20260507143535 | 28 | 199 | 11.3 | 20.9 | 0.00 | 0.00 | 0.00 | 100 | 1019.2 |
| 20260507143035 | 29 | 237 | 14.5 | 17.7 | 0.00 | 0.00 | 0.00 | 100 | 1019.3 |
| 20260507142535 | 28 | 278 | 4.8 | 17.7 | 0.00 | 0.00 | 0.00 | 100 | 1019.3 |
| 20260507142036 | 29 | 223 | 9.7 | 17.7 | 0.00 | 0.00 | 0.00 | 100 | 1019.2 |
| 20260507141536 | 28 | 206 | 12.9 | 20.9 | 0.00 | 0.00 | 0.00 | 100 | 1019.2 |
| 20260507141255 | 28 | 196 | 16.1 | 17.7 | 0.00 | 0.00 | 0.00 | 100 | 1019.2 |
| 20260507141036 | 28 | 210 | 9.7 | 17.7 | 0.00 | 0.00 | 0.00 | 100 | 1019.2 |
| 20260507140536 | 28 | 196 | 16.1 | 17.7 | 0.00 | 0.00 | 0.00 | 100 | 1019.2 |
| 20260507140521 | 28 | 250 | 8.0 | 16.1 | 0.00 | 0.00 | 0.00 | 100 | 1019.1 |
| 20260507140036 | 28 | 234 | 12.9 | 16.1 | 0.00 | 0.00 | 0.00 | 100 | 1019.3 |
| 20260507135536 | 28 | 237 | 6.4 | 17.7 | 0.00 | 0.00 | 0.00 | 100 | 1019.3 |
| 20260507135036 | 28 | 243 | 4.8 | 19.3 | 0.00 | 0.00 | 0.00 | 100 | 1019.2 |
| 20260507134536 | 28 | 250 | 8.0 | 16.1 | 0.00 | 0.00 | 0.00 | 100 | 1019.1 |
| 20260507134036 | 27 | 226 | 6.4 | 12.9 | 0.00 | 0.00 | 0.00 | 100 | 1019.1 |
| 20260507133536 | 27 | 213 | 12.9 | 14.5 | 0.00 | 0.00 | 0.00 | 100 | 1019.1 |
| 20260507133036 | 27 | 203 | 4.8 | 12.9 | 0.00 | 0.00 | 0.00 | 100 | 1019.0 |
| 20260507132536 | 26 | 178 | 4.8 | 14.5 | 0.00 | 0.00 | 0.00 | 100 | 1019.0 |
| 20260507132036 | 26 | 177 | 11.3 | 12.9 | 0.00 | 0.00 | 0.00 | 100 | 1018.9 |
| 20260507131649 | 26 | 175 | 6.4 | 17.7 | 0.00 | 0.00 | 0.00 | 100 | 1018.9 |
| 20260507131536 | 26 | 175 | 6.4 | 17.7 | 0.00 | 0.00 | 0.00 | 100 | 1018.9 |
| 20260507131036 | 26 | 206 | 11.3 | 14.5 | 0.00 | 0.00 | 0.00 | 100 | 1018.8 |
| 20260507130536 | 26 | 219 | 12.9 | 12.9 | 0.00 | 0.00 | 0.00 | 100 | 1018.8 |
| 20260507130206 | 26 | 188 | 1.6 | 8.0 | 0.00 | 0.00 | 0.00 | 100 | 1018.9 |
| 20260507130036 | 26 | 188 | 1.6 | 8.0 | 0.00 | 0.00 | 0.00 | 100 | 1018.9 |
| 20260507125536 | 25 | 243 | 1.6 | 6.4 | 0.00 | 0.00 | 0.00 | 100 | 1018.8 |
| 20260507125036 | 25 | 158 | 3.2 | 6.4 | 0.00 | 0.00 | 0.00 | 100 | 1018.8 |
| 20260507124536 | 25 | 229 | 6.4 | 8.0 | 0.00 | 0.00 | 0.00 | 100 | 1018.9 |
| 20260507124036 | 25 | 232 | 6.4 | 6.4 | 0.00 | 0.00 | 0.00 | 100 | 1018.8 |
| 20260507123536 | 25 | 232 | 3.2 | 6.4 | 0.00 | 0.00 | 0.00 | 100 | 1018.8 |
| 20260507123036 | 24 | 215 | 4.8 | 4.8 | 0.00 | 0.00 | 0.00 | 100 | 1018.8 |
| 20260507122536 | 23 | 215 | 1.6 | 4.8 | 0.00 | 0.00 | 0.00 | 100 | 1018.8 |
| 20260507122036 | 23 | 172 | 0.0 | 3.2 | 0.00 | 0.00 | 0.00 | 100 | 1018.7 |
| 20260507121536 | 22 | 187 | 1.6 | 6.4 | 0.00 | 0.00 | 0.00 | 100 | 1018.7 |
| 20260507121036 | 22 | 201 | 0.0 | 0.0 | 0.00 | 0.00 | 0.00 | 100 | 1018.6 |
| 20260507120536 | 21 | 201 | 0.0 | 0.0 | 0.00 | 0.00 | 0.00 | 100 | 1018.6 |
| 20260507120036 | 21 | 201 | 0.0 | 0.0 | 0.00 | 0.00 | 0.00 | 100 | 1018.6 |
| 20260507115536 | 21 | 201 | 0.0 | 1.6 | 0.00 | 0.00 | 0.00 | 100 | 1018.5 |
| 20260507115036 | 20 | 42 | 0.0 | 0.0 | 0.00 | 0.00 | 0.00 | 100 | 1018.5 |
| 20260507114619 | 20 | 42 | 0.0 | 0.0 | 0.00 | 0.00 | 0.00 | 100 | 1018.5 |
| 20260507114536 | 20 | 42 | 0.0 | 0.0 | 0.00 | 0.00 | 0.00 | 100 | 1018.5 |
| 20260507114036 | 19 | 42 | 0.0 | 0.0 | 0.00 | 0.00 | 0.00 | 100 | 1018.4 |
| 20260507113536 | 18 | 42 | 0.0 | 0.0 | 0.00 | 0.00 | 0.00 | 100 | 1018.4 |
| 20260507113036 | 18 | 42 | 0.0 | 0.0 | 0.00 | 0.00 | 0.00 | 100 | 1018.5 |
| 20260507112536 | 17 | 42 | 0.0 | 0.0 | 0.00 | 0.00 | 0.00 | 100 | 1018.5 |
| 20260507112036 | 17 | 42 | 0.0 | 0.0 | 0.00 | 0.00 | 0.00 | 100 | 1018.4 |
| 20260507111536 | 17 | 42 | 0.0 | 0.0 | 0.00 | 0.00 | 0.00 | 100 | 1018.4 |
| 20260507111036 | 16 | 42 | 0.0 | 0.0 | 0.00 | 0.00 | 0.00 | 100 | 1018.4 |
| 20260507110536 | 16 | 42 | 0.0 | 0.0 | 0.00 | 0.00 | 0.00 | 100 | 1018.4 |
| 20260507110036 | 16 | 42 | 0.0 | 0.0 | 0.00 | 0.00 | 0.00 | 100 | 1018.3 |
| 20260507105536 | 16 | 42 | 0.0 | 0.0 | 0.00 | 0.00 | 0.00 | 100 | 1018.3 |
| 20260507105036 | 16 | 42 | 0.0 | 0.0 | 0.00 | 0.00 | 0.00 | 100 | 1018.2 |
| 20260507104536 | 16 | 42 | 0.0 | 0.0 | 0.00 | 0.00 | 0.00 | 100 | 1018.2 |
| 20260507104118 | 16 | 42 | 0.0 | 0.0 | 0.00 | 0.00 | 0.00 | 100 | 1018.1 |
| 20260507104036 | 16 | 42 | 0.0 | 0.0 | 0.00 | 0.00 | 0.00 | 100 | 1018.1 |
| 20260507103536 | 16 | 42 | 0.0 | 0.0 | 0.00 | 0.00 | 0.00 | 100 | 1018.1 |
| 20260507103116 | 16 | 42 | 0.0 | 0.0 | 0.00 | 0.00 | 0.00 | 100 | 1017.8 |
| 20260507103036 | 16 | 42 | 0.0 | 0.0 | 0.00 | 0.00 | 0.00 | 100 | 1018.0 |
| 20260507102536 | 16 | 42 | 0.0 | 0.0 | 0.00 | 0.00 | 0.00 | 100 | 1017.8 |
| 20260507102037 | 16 | 42 | 0.0 | 0.0 | 0.00 | 0.00 | 0.00 | 100 | 1018.0 |
| 20260507101537 | 16 | 42 | 0.0 | 0.0 | 0.00 | 0.00 | 0.00 | 100 | 1017.8 |
| 20260507101037 | 16 | 42 | 0.0 | 0.0 | 0.00 | 0.00 | 0.00 | 100 | 1017.8 |
| 20260507100537 | 17 | 42 | 0.0 | 0.0 | 0.00 | 0.00 | 0.00 | 100 | 1017.6 |
| 20260507100104 | 16 | 42 | 0.0 | 0.0 | 0.00 | 0.00 | 0.00 | 100 | 1017.7 |
| 20260507100037 | 17 | 42 | 0.0 | 0.0 | 0.00 | 0.00 | 0.00 | 100 | 1017.7 |
| 20260507095537 | 17 | 42 | 0.0 | 0.0 | 0.00 | 0.00 | 0.00 | 100 | 1017.7 |
| 20260507095037 | 17 | 42 | 0.0 | 0.0 | 0.00 | 0.00 | 0.00 | 100 | 1017.6 |
| 20260507094537 | 16 | 42 | 0.0 | 0.0 | 0.00 | 0.00 | 0.00 | 100 | 1017.7 |
| 20260507094037 | 17 | 42 | 0.0 | 0.0 | 0.00 | 0.00 | 0.00 | 100 | 1017.8 |
| 20260507093537 | 17 | 42 | 0.0 | 0.0 | 0.00 | 0.00 | 0.00 | 100 | 1017.7 |
| 20260507093321 | 17 | 42 | 0.0 | 0.0 | 0.00 | 0.00 | 0.00 | 100 | 1017.7 |
| 20260507093240 | 17 | 42 | 0.0 | 0.0 | 0.00 | 0.00 | 0.00 | 100 | 1017.7 |
| 20260507093037 | 17 | 42 | 0.0 | 0.0 | 0.00 | 0.00 | 0.00 | 100 | 1017.7 |
| 20260507092537 | 17 | 42 | 0.0 | 0.0 | 0.00 | 0.00 | 0.00 | 100 | 1017.6 |
| 20260507092037 | 17 | 42 | 0.0 | 0.0 | 0.00 | 0.00 | 0.00 | 100 | 1017.7 |
| 20260507091613 | 17 | 42 | 0.0 | 0.0 | 0.00 | 0.00 | 0.00 | 100 | 1017.6 |
| 20260507091537 | 17 | 42 | 0.0 | 0.0 | 0.00 | 0.00 | 0.00 | 100 | 1017.6 |
| 20260507091136 | 17 | 42 | 0.0 | 0.0 | 0.00 | 0.00 | 0.00 | 100 | 1017.6 |
| 20260507091037 | 17 | 42 | 0.0 | 0.0 | 0.00 | 0.00 | 0.00 | 100 | 1017.6 |
| 20260507090537 | 17 | 42 | 0.0 | 0.0 | 0.00 | 0.00 | 0.00 | 100 | 1017.5 |
| 20260507090037 | 17 | 42 | 0.0 | 0.0 | 0.00 | 0.00 | 0.00 | 100 | 1017.5 |
| 20260507085537 | 17 | 42 | 0.0 | 0.0 | 0.00 | 0.00 | 0.00 | 100 | 1017.4 |
| 20260507085037 | 18 | 42 | 0.0 | 0.0 | 0.00 | 0.00 | 0.00 | 100 | 1017.3 |
| 20260507084537 | 18 | 42 | 0.0 | 0.0 | 0.00 | 0.00 | 0.00 | 100 | 1017.2 |
| 20260507084329 | 18 | 42 | 0.0 | 0.0 | 0.00 | 0.00 | 0.00 | 100 | 1017.2 |
| 20260507084154 | 18 | 42 | 0.0 | 0.0 | 0.00 | 0.00 | 0.00 | 100 | 1017.1 |
| 20260507084037 | 18 | 42 | 0.0 | 0.0 | 0.00 | 0.00 | 0.00 | 100 | 1017.1 |
| 20260507083537 | 18 | 42 | 0.0 | 0.0 | 0.00 | 0.00 | 0.00 | 100 | 1017.1 |
| 20260507083037 | 17 | 42 | 0.0 | 0.0 | 0.00 | 0.00 | 0.00 | 100 | 1017.1 |
| 20260507082537 | 18 | 42 | 0.0 | 0.0 | 0.00 | 0.00 | 0.00 | 100 | 1017.0 |
| 20260507082132 | 18 | 42 | 0.0 | 0.0 | 0.00 | 0.00 | 0.00 | 100 | 1017.0 |
| 20260507082037 | 18 | 42 | 0.0 | 0.0 | 0.00 | 0.00 | 0.00 | 100 | 1017.0 |
| 20260507081537 | 18 | 42 | 0.0 | 0.0 | 0.00 | 0.00 | 0.00 | 100 | 1017.1 |
| 20260507081037 | 18 | 42 | 0.0 | 0.0 | 0.00 | 0.00 | 0.00 | 100 | 1017.3 |
| 20260507080537 | 18 | 42 | 0.0 | 0.0 | 0.00 | 0.00 | 0.00 | 100 | 1017.2 |
| 20260507080455 | 19 | 42 | 0.0 | 0.0 | 0.00 | 0.00 | 0.00 | 100 | 1017.2 |
| 20260507080037 | 19 | 42 | 0.0 | 0.0 | 0.00 | 0.00 | 0.00 | 100 | 1017.2 |
| 20260507075537 | 18 | 42 | 0.0 | 0.0 | 0.00 | 0.00 | 0.00 | 100 | 1017.2 |
| 20260507075037 | 18 | 42 | 0.0 | 0.0 | 0.00 | 0.00 | 0.00 | 100 | 1017.1 |
| 20260507074537 | 18 | 42 | 0.0 | 0.0 | 0.00 | 0.00 | 0.00 | 100 | 1017.0 |
| 20260507074037 | 18 | 42 | 0.0 | 0.0 | 0.00 | 0.00 | 0.00 | 100 | 1017.0 |
| 20260507073537 | 18 | 42 | 0.0 | 0.0 | 0.00 | 0.00 | 0.00 | 100 | 1017.0 |
| 20260507073037 | 18 | 42 | 0.0 | 0.0 | 0.00 | 0.00 | 0.00 | 100 | 1016.9 |
| 20260507072615 | 18 | 42 | 0.0 | 0.0 | 0.00 | 0.00 | 0.00 | 100 | 1017.0 |
| 20260507072537 | 18 | 42 | 0.0 | 0.0 | 0.00 | 0.00 | 0.00 | 100 | 1017.0 |
| 20260507072037 | 18 | 42 | 0.0 | 1.6 | 0.00 | 0.00 | 0.00 | 100 | 1017.0 |
| 20260507071537 | 18 | 46 | 0.0 | 0.0 | 0.00 | 0.00 | 0.00 | 100 | 1017.0 |
| 20260507071037 | 18 | 46 | 0.0 | 0.0 | 0.00 | 0.00 | 0.00 | 100 | 1017.1 |
| 20260507070623 | 18 | 46 | 0.0 | 0.0 | 0.00 | 0.00 | 0.00 | 100 | 1017.2 |
| 20260507070537 | 18 | 46 | 0.0 | 0.0 | 0.00 | 0.00 | 0.00 | 100 | 1017.2 |
| 20260507070037 | 18 | 46 | 0.0 | 0.0 | 0.00 | 0.00 | 0.00 | 100 | 1017.3 |
| 20260507065537 | 18 | 46 | 0.0 | 0.0 | 0.00 | 0.00 | 0.00 | 100 | 1017.4 |
| 20260507065037 | 18 | 46 | 0.0 | 0.0 | 0.00 | 0.00 | 0.00 | 100 | 1017.4 |
| 20260507064537 | 18 | 46 | 0.0 | 0.0 | 0.00 | 0.00 | 0.00 | 100 | 1017.6 |
| 20260507064037 | 18 | 46 | 0.0 | 0.0 | 0.00 | 0.00 | 0.00 | 100 | 1017.6 |
| 20260507063826 | 18 | 46 | 0.0 | 0.0 | 0.00 | 0.00 | 0.00 | 100 | 1018.1 |
| 20260507063537 | 18 | 46 | 0.0 | 0.0 | 0.00 | 0.00 | 0.00 | 100 | 1017.8 |
| 20260507063038 | 18 | 46 | 0.0 | 0.0 | 0.00 | 0.00 | 0.00 | 100 | 1018.1 |
| 20260507062537 | 18 | 46 | 0.0 | 0.0 | 0.00 | 0.00 | 0.00 | 100 | 1018.1 |
| 20260507062038 | 18 | 46 | 0.0 | 0.0 | 0.00 | 0.00 | 0.00 | 100 | 1018.0 |
| 20260507061538 | 18 | 46 | 0.0 | 0.0 | 0.00 | 0.00 | 0.00 | 100 | 1018.1 |
| 20260507061150 | 18 | 46 | 0.0 | 0.0 | 0.00 | 0.00 | 0.00 | 100 | 1018.3 |
| 20260507061038 | 18 | 46 | 0.0 | 0.0 | 0.00 | 0.00 | 0.00 | 100 | 1018.3 |
| 20260507060538 | 18 | 46 | 0.0 | 0.0 | 0.00 | 0.00 | 0.00 | 100 | 1018.3 |
| 20260507060038 | 18 | 46 | 0.0 | 0.0 | 0.00 | 0.00 | 0.00 | 100 | 1018.3 |
| 20260507055634 | 19 | 46 | 0.0 | 0.0 | 0.00 | 0.00 | 0.00 | 100 | 1018.5 |
| 20260507055538 | 19 | 46 | 0.0 | 0.0 | 0.00 | 0.00 | 0.00 | 100 | 1018.5 |
| 20260507055118 | 19 | 46 | 0.0 | 0.0 | 0.00 | 0.00 | 0.00 | 100 | 1018.4 |
| 20260507055038 | 19 | 46 | 0.0 | 0.0 | 0.00 | 0.00 | 0.00 | 100 | 1018.4 |
| 20260507055026 | 19 | 46 | 0.0 | 0.0 | 0.00 | 0.00 | 0.00 | 100 | 1018.6 |
| 20260507054613 | 18 | 46 | 0.0 | 0.0 | 0.00 | 0.00 | 0.00 | 100 | 1018.4 |
| 20260507054538 | 18 | 46 | 0.0 | 0.0 | 0.00 | 0.00 | 0.00 | 100 | 1018.4 |
| 20260507054226 | 19 | 46 | 0.0 | 0.0 | 0.00 | 0.00 | 0.00 | 100 | 1018.5 |
| 20260507054038 | 19 | 46 | 0.0 | 0.0 | 0.00 | 0.00 | 0.00 | 100 | 1018.5 |
| 20260507053538 | 19 | 46 | 0.0 | 0.0 | 0.00 | 0.00 | 0.00 | 100 | 1018.6 |
| 20260507053425 | 19 | 46 | 0.0 | 0.0 | 0.00 | 0.00 | 0.00 | 100 | 1018.9 |
| 20260507053038 | 19 | 46 | 0.0 | 0.0 | 0.00 | 0.00 | 0.00 | 100 | 1018.8 |
| 20260507052538 | 19 | 46 | 0.0 | 0.0 | 0.00 | 0.00 | 0.00 | 100 | 1018.8 |
| 20260507052038 | 19 | 46 | 0.0 | 0.0 | 0.00 | 0.00 | 0.00 | 100 | 1018.9 |
| 20260507051655 | 19 | 46 | 0.0 | 0.0 | 0.00 | 0.00 | 0.00 | 100 | 1019.0 |
| 20260507051538 | 20 | 46 | 0.0 | 0.0 | 0.00 | 0.00 | 0.00 | 100 | 1019.0 |
| 20260507051038 | 19 | 46 | 0.0 | 0.0 | 0.00 | 0.00 | 0.00 | 100 | 1019.0 |
| 20260507050538 | 20 | 46 | 0.0 | 0.0 | 0.00 | 0.00 | 0.00 | 100 | 1019.2 |
| 20260507050038 | 20 | 46 | 0.0 | 0.0 | 0.00 | 0.00 | 0.00 | 100 | 1019.2 |
| 20260507045538 | 20 | 46 | 0.0 | 0.0 | 0.00 | 0.00 | 0.00 | 100 | 1019.1 |
| 20260507045038 | 20 | 46 | 0.0 | 0.0 | 0.00 | 0.00 | 0.00 | 100 | 1019.1 |
| 20260507044540 | 20 | 97 | 0.0 | 0.0 | 0.00 | 0.00 | 0.00 | 100 | 1019.1 |
| 20260507044538 | 20 | 46 | 0.0 | 0.0 | 0.00 | 0.00 | 0.00 | 100 | 1019.0 |
| 20260507044038 | 20 | 46 | 0.0 | 0.0 | 0.00 | 0.00 | 0.00 | 100 | 1019.1 |
| 20260507043602 | 20 | 97 | 0.0 | 4.8 | 0.00 | 0.00 | 0.00 | 100 | 1019.1 |
| 20260507043538 | 20 | 97 | 0.0 | 0.0 | 0.00 | 0.00 | 0.00 | 100 | 1019.1 |
| 20260507043038 | 20 | 97 | 0.0 | 4.8 | 0.00 | 0.00 | 0.00 | 100 | 1019.1 |
| 20260507042538 | 20 | 45 | 0.0 | 6.4 | 0.00 | 0.00 | 0.00 | 100 | 1019.2 |
| 20260507042038 | 20 | 91 | 6.4 | 6.4 | 0.00 | 0.00 | 0.00 | 100 | 1019.1 |
| 20260507041538 | 20 | 11 | 0.0 | 0.0 | 0.00 | 0.00 | 0.00 | 100 | 1019.1 |
| 20260507041038 | 20 | 11 | 0.0 | 0.0 | 0.00 | 0.00 | 0.00 | 100 | 1019.0 |
| 20260507040538 | 20 | 11 | 0.0 | 0.0 | 0.00 | 0.00 | 0.00 | 100 | 1019.1 |
| 20260507040038 | 20 | 11 | 0.0 | 0.0 | 0.00 | 0.00 | 0.00 | 100 | 1019.0 |
| 20260507035538 | 20 | 11 | 0.0 | 0.0 | 0.00 | 0.00 | 0.00 | 100 | 1018.9 |
| 20260507035038 | 20 | 11 | 0.0 | 0.0 | 0.00 | 0.00 | 0.00 | 100 | 1018.9 |
| 20260507034538 | 20 | 11 | 0.0 | 0.0 | 0.00 | 0.00 | 0.00 | 100 | 1018.8 |
| 20260507034038 | 20 | 11 | 0.0 | 0.0 | 0.00 | 0.00 | 0.00 | 100 | 1018.7 |
| 20260507033538 | 20 | 11 | 0.0 | 0.0 | 0.00 | 0.00 | 0.00 | 100 | 1018.8 |
| 20260507033038 | 20 | 11 | 0.0 | 0.0 | 0.00 | 0.00 | 0.00 | 100 | 1018.8 |
| 20260507032611 | 20 | 11 | 0.0 | 0.0 | 0.00 | 0.00 | 0.00 | 100 | 1018.7 |
| 20260507032538 | 20 | 11 | 0.0 | 0.0 | 0.00 | 0.00 | 0.00 | 100 | 1018.7 |
| 20260507032038 | 20 | 11 | 0.0 | 0.0 | 0.00 | 0.00 | 0.00 | 100 | 1018.7 |
| 20260507031538 | 20 | 11 | 0.0 | 0.0 | 0.00 | 0.00 | 0.00 | 100 | 1018.6 |
| 20260507031132 | 20 | 11 | 0.0 | 0.0 | 0.00 | 0.00 | 0.00 | 100 | 1018.7 |
| 20260507031038 | 20 | 11 | 0.0 | 0.0 | 0.00 | 0.00 | 0.00 | 100 | 1018.7 |
| 20260507030538 | 20 | 11 | 0.0 | 0.0 | 0.00 | 0.00 | 0.00 | 100 | 1018.8 |
| 20260507030038 | 21 | 11 | 0.0 | 0.0 | 0.00 | 0.00 | 0.00 | 100 | 1018.8 |
| 20260507025538 | 21 | 11 | 0.0 | 0.0 | 0.00 | 0.00 | 0.00 | 100 | 1018.8 |
| 20260507025038 | 21 | 11 | 0.0 | 0.0 | 0.00 | 0.00 | 0.00 | 100 | 1018.7 |
| 20260507024612 | 21 | 11 | 0.0 | 0.0 | 0.00 | 0.00 | 0.00 | 100 | 1018.7 |
| 20260507024538 | 21 | 11 | 0.0 | 0.0 | 0.00 | 0.00 | 0.00 | 100 | 1018.7 |
| 20260507024038 | 21 | 11 | 0.0 | 0.0 | 0.00 | 0.00 | 0.00 | 100 | 1018.7 |
| 20260507023539 | 21 | 11 | 0.0 | 0.0 | 0.00 | 0.00 | 0.00 | 100 | 1018.7 |
| 20260507023039 | 21 | 11 | 0.0 | 0.0 | 0.00 | 0.00 | 0.00 | 100 | 1018.8 |
| 20260507022539 | 21 | 11 | 0.0 | 0.0 | 0.00 | 0.00 | 0.00 | 100 | 1018.8 |
| 20260507022137 | 21 | 11 | 0.0 | 0.0 | 0.00 | 0.00 | 0.00 | 100 | 1018.8 |
| 20260507022039 | 21 | 11 | 0.0 | 0.0 | 0.00 | 0.00 | 0.00 | 100 | 1018.8 |
| 20260507021539 | 21 | 11 | 0.0 | 0.0 | 0.00 | 0.00 | 0.00 | 100 | 1018.8 |
| 20260507021039 | 21 | 11 | 0.0 | 0.0 | 0.00 | 0.00 | 0.00 | 100 | 1018.8 |
| 20260507020715 | 22 | 11 | 0.0 | 0.0 | 0.00 | 0.00 | 0.00 | 100 | 1018.8 |
| 20260507020539 | 21 | 11 | 0.0 | 0.0 | 0.00 | 0.00 | 0.00 | 100 | 1018.8 |
| 20260507020039 | 22 | 11 | 0.0 | 0.0 | 0.00 | 0.00 | 0.00 | 100 | 1018.8 |
| 20260507015539 | 22 | 11 | 0.0 | 0.0 | 0.00 | 0.00 | 0.00 | 100 | 1018.8 |
| 20260507015039 | 22 | 11 | 0.0 | 0.0 | 0.00 | 0.00 | 0.00 | 100 | 1018.8 |
| 20260507014539 | 22 | 11 | 0.0 | 0.0 | 0.00 | 0.00 | 0.00 | 100 | 1018.8 |
| 20260507014039 | 22 | 11 | 0.0 | 0.0 | 0.00 | 0.00 | 0.00 | 100 | 1018.8 |
| 20260507013612 | 22 | 11 | 0.0 | 0.0 | 0.00 | 0.00 | 0.00 | 100 | 1018.7 |
| 20260507013539 | 22 | 11 | 0.0 | 0.0 | 0.00 | 0.00 | 0.00 | 100 | 1018.7 |
| 20260507013039 | 23 | 11 | 0.0 | 0.0 | 0.00 | 0.00 | 0.00 | 100 | 1018.7 |
| 20260507012539 | 23 | 11 | 0.0 | 0.0 | 0.00 | 0.00 | 0.00 | 100 | 1018.6 |
| 20260507012039 | 23 | 11 | 0.0 | 0.0 | 0.00 | 0.00 | 0.00 | 100 | 1018.6 |
| 20260507011539 | 23 | 11 | 0.0 | 3.2 | 0.00 | 0.00 | 0.00 | 100 | 1018.6 |
| 20260507011039 | 23 | 341 | 3.2 | 6.4 | 0.00 | 0.00 | 0.00 | 100 | 1018.6 |
| 20260507010539 | 23 | 288 | 3.2 | 3.2 | 0.00 | 0.00 | 0.00 | 100 | 1018.6 |
| 20260507010039 | 23 | 261 | 0.0 | 0.0 | 0.00 | 0.00 | 0.00 | 100 | 1018.5 |
| 20260507005539 | 24 | 261 | 0.0 | 0.0 | 0.00 | 0.00 | 0.00 | 100 | 1018.4 |
| 20260507005039 | 24 | 261 | 0.0 | 0.0 | 0.00 | 0.00 | 0.00 | 100 | 1018.5 |
| 20260507004539 | 25 | 261 | 0.0 | 0.0 | 0.00 | 0.00 | 0.00 | 100 | 1018.4 |
| 20260507004039 | 25 | 261 | 0.0 | 0.0 | 0.00 | 0.00 | 0.00 | 100 | 1018.4 |
| 20260507003539 | 25 | 261 | 0.0 | 4.8 | 0.00 | 0.00 | 0.00 | 100 | 1018.3 |
| 20260507003039 | 25 | 241 | 0.0 | 6.4 | 0.00 | 0.00 | 0.00 | 100 | 1018.4 |
| 20260507002539 | 26 | 288 | 0.0 | 4.8 | 0.00 | 0.00 | 0.00 | 100 | 1018.4 |
| 20260507002039 | 26 | 219 | 0.0 | 6.4 | 0.00 | 0.00 | 0.00 | 100 | 1018.4 |
| 20260507001539 | 26 | 281 | 0.0 | 4.8 | 0.00 | 0.00 | 0.00 | 100 | 1018.4 |
| 20260507001039 | 26 | 317 | 3.2 | 6.4 | 0.00 | 0.00 | 0.00 | 100 | 1018.3 |
| 20260507000539 | 26 | 306 | 3.2 | 6.4 | 0.00 | 0.00 | 0.00 | 100 | 1018.3 |
| 20260507000039 | 26 | 323 | 4.8 | 8.0 | 0.00 | 0.00 | 0.00 | 100 | 1018.2 |
| 20260506235539 | 26 | 275 | 1.6 | 8.0 | 0.00 | 0.00 | 0.00 | 100 | 1018.1 |
| 20260506235039 | 27 | 265 | 3.2 | 9.7 | 0.00 | 0.00 | 0.00 | 100 | 1018.1 |
| 20260506234539 | 27 | 264 | 3.2 | 9.7 | 0.00 | 0.00 | 0.00 | 100 | 1018.2 |
| 20260506234210 | 27 | 264 | 8.0 | 12.9 | 0.00 | 0.00 | 0.00 | 100 | 1018.2 |
| 20260506234039 | 27 | 264 | 8.0 | 12.9 | 0.00 | 0.00 | 0.00 | 100 | 1018.2 |
| 20260506233539 | 27 | 258 | 9.7 | 11.3 | 0.00 | 0.00 | 0.00 | 100 | 1018.2 |
| 20260506233039 | 27 | 268 | 9.7 | 12.9 | 0.00 | 0.00 | 0.00 | 100 | 1018.2 |
| 20260506232539 | 27 | 282 | 4.8 | 11.3 | 0.00 | 0.00 | 0.00 | 100 | 1018.2 |
| 20260506232039 | 27 | 264 | 3.2 | 16.1 | 0.00 | 0.00 | 0.00 | 100 | 1018.2 |
| 20260506231851 | 27 | 216 | 12.9 | 14.5 | 0.00 | 0.00 | 0.00 | 100 | 1018.1 |
| 20260506231539 | 27 | 216 | 12.9 | 14.5 | 0.00 | 0.00 | 0.00 | 100 | 1018.1 |
| 20260506231039 | 28 | 246 | 9.7 | 19.3 | 0.00 | 0.00 | 0.00 | 100 | 1018.1 |
| 20260506230819 | 28 | 241 | 9.7 | 17.7 | 0.00 | 0.00 | 0.00 | 100 | 1018.1 |
| 20260506230539 | 28 | 260 | 12.9 | 17.7 | 0.00 | 0.00 | 0.00 | 100 | 1018.1 |
| 20260506230039 | 28 | 247 | 9.7 | 17.7 | 0.00 | 0.00 | 0.00 | 100 | 1018.0 |
| 20260506225539 | 28 | 241 | 9.7 | 17.7 | 0.00 | 0.00 | 0.00 | 100 | 1018.1 |
| 20260506225039 | 28 | 237 | 8.0 | 20.9 | 0.00 | 0.00 | 0.00 | 100 | 1018.0 |
| 20260506224539 | 28 | 302 | 11.3 | 19.3 | 0.00 | 0.00 | 0.00 | 100 | 1018.0 |
| 20260506224039 | 28 | 241 | 8.0 | 22.5 | 0.00 | 0.00 | 0.00 | 100 | 1018.0 |
| 20260506223539 | 29 | 247 | 9.7 | 17.7 | 0.00 | 0.00 | 0.00 | 100 | 1018.0 |
| 20260506223040 | 29 | 254 | 9.7 | 16.1 | 0.00 | 0.00 | 0.00 | 100 | 1017.9 |
| 20260506222540 | 29 | 240 | 14.5 | 17.7 | 0.00 | 0.00 | 0.00 | 100 | 1017.9 |
| 20260506222040 | 29 | 258 | 16.1 | 19.3 | 0.00 | 0.00 | 0.00 | 100 | 1017.9 |
| 20260506221540 | 30 | 247 | 11.3 | 14.5 | 0.00 | 0.00 | 0.00 | 100 | 1017.9 |
| 20260506221040 | 30 | 272 | 12.9 | 17.7 | 0.00 | 0.00 | 0.00 | 100 | 1017.8 |
| 20260506220540 | 30 | 244 | 9.7 | 14.5 | 0.00 | 0.00 | 0.00 | 100 | 1017.8 |
| 20260506220040 | 30 | 278 | 11.3 | 19.3 | 0.00 | 0.00 | 0.00 | 100 | 1017.7 |
| 20260506215540 | 30 | 220 | 9.7 | 19.3 | 0.00 | 0.00 | 0.00 | 100 | 1017.8 |
| 20260506215040 | 30 | 243 | 11.3 | 19.3 | 0.00 | 0.00 | 0.00 | 100 | 1017.8 |
| 20260506214540 | 31 | 262 | 11.3 | 17.7 | 0.00 | 0.00 | 0.00 | 100 | 1017.8 |
| 20260506214040 | 31 | 277 | 6.4 | 17.7 | 0.00 | 0.00 | 0.00 | 100 | 1017.7 |
| 20260506213540 | 31 | 278 | 4.8 | 19.3 | 0.00 | 0.00 | 0.00 | 100 | 1017.7 |
| 20260506213040 | 31 | 248 | 9.7 | 17.7 | 0.00 | 0.00 | 0.00 | 100 | 1017.7 |
| 20260506212540 | 31 | 260 | 9.7 | 16.1 | 0.00 | 0.00 | 0.00 | 100 | 1017.7 |
| 20260506212040 | 32 | 275 | 11.3 | 17.7 | 0.00 | 0.00 | 0.00 | 100 | 1017.6 |
| 20260506211540 | 32 | 255 | 8.0 | 14.5 | 0.00 | 0.00 | 0.00 | 100 | 1017.7 |
| 20260506211040 | 32 | 305 | 3.2 | 12.9 | 0.00 | 0.00 | 0.00 | 100 | 1017.7 |
| 20260506210540 | 32 | 322 | 6.4 | 12.9 | 0.00 | 0.00 | 0.00 | 100 | 1017.7 |
| 20260506210040 | 32 | 277 | 4.8 | 12.9 | 0.00 | 0.00 | 0.00 | 100 | 1017.6 |
| 20260506205540 | 32 | 246 | 8.0 | 19.3 | 0.00 | 0.00 | 0.00 | 100 | 1017.6 |
| 20260506205233 | 31 | 213 | 9.7 | 17.7 | 0.00 | 0.00 | 0.00 | 100 | 1017.6 |
| 20260506205040 | 31 | 270 | 12.9 | 17.7 | 0.00 | 0.00 | 0.00 | 100 | 1017.6 |
| 20260506204540 | 31 | 213 | 9.7 | 17.7 | 0.00 | 0.00 | 0.00 | 100 | 1017.6 |
| 20260506204040 | 32 | 236 | 9.7 | 17.7 | 0.00 | 0.00 | 0.00 | 100 | 1017.5 |
| 20260506203540 | 32 | 209 | 11.3 | 16.1 | 0.00 | 0.00 | 0.00 | 100 | 1017.5 |
| 20260506203040 | 32 | 239 | 11.3 | 24.1 | 0.00 | 0.00 | 0.00 | 100 | 1017.6 |
| 20260506202540 | 32 | 233 | 14.5 | 22.5 | 0.00 | 0.00 | 0.00 | 100 | 1017.6 |
| 20260506202040 | 32 | 244 | 16.1 | 25.7 | 0.00 | 0.00 | 0.00 | 100 | 1017.7 |
| 20260506201711 | 32 | 240 | 14.5 | 24.1 | 0.00 | 0.00 | 0.00 | 100 | 1017.7 |
| 20260506201540 | 32 | 240 | 14.5 | 24.1 | 0.00 | 0.00 | 0.00 | 100 | 1017.7 |
| 20260506201040 | 33 | 267 | 6.4 | 27.4 | 0.00 | 0.00 | 0.00 | 100 | 1017.6 |
| 20260506200540 | 33 | 241 | 11.3 | 17.7 | 0.00 | 0.00 | 0.00 | 100 | 1017.7 |
| 20260506200040 | 33 | 258 | 17.7 | 19.3 | 0.00 | 0.00 | 0.00 | 100 | 1017.6 |
| 20260506195540 | 33 | 264 | 6.4 | 17.7 | 0.00 | 0.00 | 0.00 | 100 | 1017.6 |
| 20260506195145 | 33 | 326 | 1.6 | 17.7 | 0.00 | 0.00 | 0.00 | 100 | 1017.7 |
| 20260506195040 | 33 | 326 | 1.6 | 17.7 | 0.00 | 0.00 | 0.00 | 100 | 1017.7 |
| 20260506194841 | 33 | 253 | 12.9 | 14.5 | 0.00 | 0.00 | 0.00 | 100 | 1017.7 |
| 20260506194540 | 33 | 253 | 12.9 | 14.5 | 0.00 | 0.00 | 0.00 | 100 | 1017.7 |
| 20260506194040 | 33 | 84 | 3.2 | 8.0 | 0.00 | 0.00 | 0.00 | 100 | 1017.8 |
| 20260506193540 | 33 | 91 | 4.8 | 6.4 | 0.00 | 0.00 | 0.00 | 100 | 1017.9 |
| 20260506193406 | 33 | 144 | 6.4 | 14.5 | 0.00 | 0.00 | 0.00 | 100 | 1018.0 |
| 20260506193040 | 33 | 144 | 6.4 | 14.5 | 0.00 | 0.00 | 0.00 | 100 | 1018.0 |
| 20260506192933 | 34 | 130 | 6.4 | 11.3 | 0.00 | 0.00 | 0.00 | 100 | 1017.9 |
| 20260506192540 | 34 | 130 | 6.4 | 11.3 | 0.00 | 0.00 | 0.00 | 100 | 1017.9 |
| 20260506192040 | 34 | 246 | 3.2 | 11.3 | 0.00 | 0.00 | 0.00 | 100 | 1017.9 |
| 20260506191719 | 33 | 278 | 1.6 | 11.3 | 0.00 | 0.00 | 0.00 | 100 | 1018.0 |
| 20260506191540 | 34 | 244 | 0.0 | 16.1 | 0.00 | 0.00 | 0.00 | 100 | 1017.9 |
| 20260506191040 | 33 | 333 | 3.2 | 11.3 | 0.00 | 0.00 | 0.00 | 100 | 1018.0 |
| 20260506190540 | 33 | 278 | 1.6 | 11.3 | 0.00 | 0.00 | 0.00 | 100 | 1018.0 |
| 20260506190040 | 32 | 306 | 1.6 | 11.3 | 0.00 | 0.00 | 0.00 | 100 | 1018.1 |
| 20260506185625 | 33 | 222 | 3.2 | 11.3 | 0.00 | 0.00 | 0.00 | 100 | 1018.2 |
| 20260506185540 | 33 | 222 | 3.2 | 11.3 | 0.00 | 0.00 | 0.00 | 100 | 1018.2 |
| 20260506185427 | 33 | 158 | 9.7 | 11.3 | 0.00 | 0.00 | 0.00 | 100 | 1018.3 |
| 20260506185040 | 33 | 158 | 9.7 | 11.3 | 0.00 | 0.00 | 0.00 | 100 | 1018.3 |
| 20260506184540 | 33 | 132 | 9.7 | 14.5 | 0.00 | 0.00 | 0.00 | 100 | 1018.5 |
| 20260506184040 | 33 | 8 | 1.6 | 16.1 | 0.00 | 0.00 | 0.00 | 100 | 1018.5 |
| 20260506183729 | 33 | 212 | 12.9 | 16.1 | 0.00 | 0.00 | 0.00 | 100 | 1018.7 |
| 20260506183541 | 33 | 212 | 12.9 | 16.1 | 0.00 | 0.00 | 0.00 | 100 | 1018.7 |
| 20260506183200 | 33 | 286 | 3.2 | 9.7 | 0.00 | 0.00 | 0.00 | 100 | 1018.7 |
| 20260506183041 | 33 | 286 | 3.2 | 9.7 | 0.00 | 0.00 | 0.00 | 100 | 1018.7 |
| 20260506182916 | 33 | 278 | 3.2 | 9.7 | 0.00 | 0.00 | 0.00 | 100 | 1018.8 |
| 20260506182541 | 33 | 278 | 3.2 | 9.7 | 0.00 | 0.00 | 0.00 | 100 | 1018.8 |
| 20260506182519 | 33 | 164 | 0.0 | 11.3 | 0.00 | 0.00 | 0.00 | 100 | 1018.8 |
| 20260506182041 | 33 | 164 | 0.0 | 11.3 | 0.00 | 0.00 | 0.00 | 100 | 1018.8 |
| 20260506181908 | 33 | 210 | 16.1 | 16.1 | 0.00 | 0.00 | 0.00 | 100 | 1019.0 |
| 20260506181541 | 32 | 130 | 6.4 | 17.7 | 0.00 | 0.00 | 0.00 | 100 | 1018.9 |
| 20260506181041 | 33 | 210 | 16.1 | 16.1 | 0.00 | 0.00 | 0.00 | 100 | 1019.0 |
| 20260506181018 | 32 | 232 | 4.8 | 16.1 | 0.00 | 0.00 | 0.00 | 100 | 1019.0 |
| 20260506180541 | 32 | 147 | 3.2 | 17.7 | 0.00 | 0.00 | 0.00 | 100 | 1019.0 |
| 20260506180041 | 32 | 232 | 4.8 | 16.1 | 0.00 | 0.00 | 0.00 | 100 | 1019.0 |
| 20260506180017 | 32 | 151 | 3.2 | 14.5 | 0.00 | 0.00 | 0.00 | 100 | 1018.9 |
| 20260506175541 | 32 | 151 | 3.2 | 14.5 | 0.00 | 0.00 | 0.00 | 100 | 1018.9 |
| 20260506175041 | 33 | 184 | 6.4 | 24.1 | 0.00 | 0.00 | 0.00 | 100 | 1019.1 |
| 20260506174541 | 33 | 209 | 4.8 | 8.0 | 0.00 | 0.00 | 0.00 | 100 | 1019.0 |
| 20260506174041 | 32 | 78 | 0.0 | 11.3 | 0.00 | 0.00 | 0.00 | 100 | 1019.2 |
| 20260506173751 | 32 | 168 | 9.7 | 19.3 | 0.00 | 0.00 | 0.00 | 100 | 1019.2 |
| 20260506173541 | 32 | 168 | 9.7 | 19.3 | 0.00 | 0.00 | 0.00 | 100 | 1019.2 |
| 20260506173041 | 32 | 210 | 8.0 | 12.9 | 0.00 | 0.00 | 0.00 | 100 | 1019.1 |
| 20260506172642 | 31 | 201 | 11.3 | 17.7 | 0.00 | 0.00 | 0.00 | 100 | 1019.2 |
| 20260506172541 | 31 | 274 | 1.6 | 14.5 | 0.00 | 0.00 | 0.00 | 100 | 1019.1 |
| 20260506172041 | 31 | 201 | 11.3 | 17.7 | 0.00 | 0.00 | 0.00 | 100 | 1019.2 |
| 20260506171541 | 32 | 209 | 14.5 | 16.1 | 0.00 | 0.00 | 0.00 | 100 | 1019.2 |
| 20260506171157 | 32 | 227 | 6.4 | 11.3 | 0.00 | 0.00 | 0.00 | 100 | 1019.2 |
| 20260506171041 | 31 | 185 | 6.4 | 17.7 | 0.00 | 0.00 | 0.00 | 100 | 1019.2 |
| 20260506170541 | 32 | 227 | 6.4 | 11.3 | 0.00 | 0.00 | 0.00 | 100 | 1019.2 |